This demonstration page uses our WeatherBlox Daily Observations layout. Learn more.

Left ArrowRight Arrow

39.92423, -83.80882

Hourly Observations for October 13, 2020

Temp ( °F °C ) Dew Point ( °F °C ) Humidity (%) Winds ( mph kmh ) Pressure ( in mb ) Visibility ( mi km ) Precip ( " mm )
12:28 am 00:28 Cloudy 54 12 54 12 100 100 NW 12 19 29.95 1014 10 16.0934 0 0
12:56 am 00:56 Cloudy 54 12.2 54 12.2 100 100 NW 15 24 29.96 1014 10 16.0934 0.01 0.254
1:19 am 01:19 Mostly Cloudy 54 12 48 9 82 82 NW 17 28 29.97 1015 10 16.0934 0 0
1:30 am 01:30 Mostly Clear 52 11 46 8 82 82 NNW 18 30 29.98 1015 10 16.0934 0 0
1:56 am 01:56 Clear 51 10.6 47 8.3 86 86 NW 14 22 29.98 1015 10 16.0934 0.01 0.254
2:56 am 02:56 Clear 48 8.9 47 8.3 96 96 NW 7 11 30.02 1017 10 16.0934 0 0
3:56 am 03:56 Clear 46 7.8 46 7.8 100 100 WNW 6 9 30.04 1017 10 16.0934 0 0
4:56 am 04:56 Clear 44 6.7 44 6.7 100 100 W 3 6 30.05 1018 10 16.0934 0 0
5:56 am 05:56 Clear with Mist and Fog 41 5 41 5 100 100 Calm 30.07 1018 5 8.0467 0 0
6:00 am 06:00 Clear with Mist and Fog 41 5 41 5 100 100 Calm 30.1 1019 1.75 2.816345 0 0
6:09 am 06:09 Clear with Mist and Fog 43 6 43 6 100 100 Calm 30.11 1020 4 6.43736 0 0
6:56 am 06:56 Clear 42 5.6 42 5.6 100 100 W 3 6 30.1 1019 10 16.0934 0 0
7:56 am 07:56 Sunny with Mist and Fog 42 5.6 42 5.6 100 100 SW 5 7 30.11 1020 4 6.43736 0 0
8:22 am 08:22 Sunny with Mist and Fog 41 5 41 5 100 100 Calm 30.14 1021 2 3.21868 0 0
8:32 am 08:32 Sunny with Mist and Fog 43 6 43 6 100 100 Calm 30.15 1021 3 4.82802 0 0
8:39 am 08:39 Sunny with Mist and Fog 45 7 45 7 100 100 Calm 30.15 1021 2.5 4.02335 0 0
8:46 am 08:46 Sunny 45 7 45 7 100 100 WSW 3 6 30.15 1021 8 12.87472 0 0
8:56 am 08:56 Sunny 46 7.8 46 7.8 100 100 W 3 6 30.14 1021 9 14.48406 0 0
9:56 am 09:56 Sunny 52 11.1 48 8.9 86 86 WNW 6 9 30.16 1021 10 16.0934 0 0
10:56 am 10:56 Sunny 56 13.3 48 8.9 75 75 WNW 5 7 30.18 1022 10 16.0934 0 0
11:56 am 11:56 Sunny 61 16.1 46 7.8 58 58 WNW 5 7 30.18 1022 10 16.0934 0 0
12:56 pm 12:56 Sunny 63 17.2 39 3.9 41 41 VRB 5 7 30.17 1022 10 16.0934 0 0
1:56 pm 13:56 Sunny 65 18.3 38 3.3 37 37 W 8 13 30.14 1021 10 16.0934 0 0
2:56 pm 14:56 Sunny 67 19.4 37 2.8 33 33 VRB 3 6 30.1 1019 10 16.0934 0 0
3:56 pm 15:56 Sunny 67 19.4 37 2.8 33 33 WSW 8 13 30.08 1019 10 16.0934 0 0
4:56 pm 16:56 Sunny 67 19.4 36 2.2 32 32 WSW 8 13 30.09 1019 10 16.0934 0 0
5:56 pm 17:56 Sunny 65 18.3 38 3.3 37 37 SW 8 13 30.07 1018 10 16.0934 0 0
6:56 pm 18:56 Sunny 59 15 38 3.3 46 46 SW 5 7 30.07 1018 10 16.0934 0 0
7:56 pm 19:56 Clear 55 12.8 39 3.9 55 55 S 6 9 30.07 1018 10 16.0934 0 0
8:56 pm 20:56 Clear 55 12.8 39 3.9 55 55 SSW 7 11 30.07 1018 10 16.0934 0 0
9:56 pm 21:56 Clear 52 11.1 39 3.9 61 61 SW 6 9 30.08 1019 10 16.0934 0 0
10:56 pm 22:56 Clear 53 11.7 39 3.9 59 59 SSW 8 13 30.06 1018 10 16.0934 0 0
11:56 pm 23:56 Clear 52 11.1 39 3.9 61 61 SSW 7 11 30.05 1018 10 16.0934 0 0

Powered by AerisWeather